• în Republica Moldova
  • Lista ţărilor
  • Pe 7 zile
  • Temperatura apei
  • Hartă satelitară
  • Meteo pe hartă
  • Widget-uri
  • user-avatar
    Intrare

    Meteo pe oră la Brisbane

    Astăzi, 27 Iulie, Joi

    Timp Temperatura Precipitaţii Vânt Presiune Umiditate
    00:00 +16°C° 0 mm 2 m/s 764 mmHg 49%
    01:00 +15°C° 0 mm 2 m/s 764 mmHg 50%
    02:00 +15°C° 0 mm 2 m/s 764 mmHg 51%
    03:00 +15°C° 0 mm 2 m/s 764 mmHg 52%
    04:00 +13°C° 0 mm 3 m/s 764 mmHg 53%
    05:00 +13°C° 0 mm 3 m/s 765 mmHg 54%
    06:00 +13°C° 0 mm 3 m/s 765 mmHg 56%
    07:00 +12°C° 0 mm 3 m/s 765 mmHg 57%
    08:00 +16°C° 0 mm 3 m/s 766 mmHg 51%
    09:00 +18°C° 0 mm 3 m/s 766 mmHg 45%
    10:00 +21°C° 0 mm 3 m/s 766 mmHg 39%
    11:00 +22°C° 0 mm 3 m/s 766 mmHg 37%
    12:00 +24°C° 0 mm 3 m/s 765 mmHg 34%
    13:00 +25°C° 0 mm 3 m/s 765 mmHg 32%
    14:00 +24°C° 0 mm 3 m/s 765 mmHg 35%
    15:00 +24°C° 0 mm 3 m/s 765 mmHg 39%
    16:00 +22°C° 0 mm 3 m/s 765 mmHg 43%
    17:00 +20°C° 0 mm 3 m/s 765 mmHg 52%
    18:00 +19°C° 0 mm 3 m/s 766 mmHg 62%
    19:00 +17°C° 0 mm 3 m/s 766 mmHg 72%
    20:00 +16°C° 0 mm 2 m/s 766 mmHg 75%
    21:00 +16°C° 0 mm 2 m/s 767 mmHg 78%
    22:00 +15°C° 0 mm 2 m/s 767 mmHg 81%
    23:00 +15°C° 0 mm 1 m/s 767 mmHg 83%

    Mâine, 28 Iulie, Vineri

    Timp Temperatura Precipitaţii Vânt Presiune Umiditate
    00:00 +14°C° 0 mm 1 m/s 767 mmHg 84%
    01:00 +14°C° 0 mm 1 m/s 767 mmHg 86%
    02:00 +14°C° 0 mm 1 m/s 767 mmHg 87%
    03:00 +13°C° 0 mm 1 m/s 766 mmHg 89%
    04:00 +13°C° 0 mm 1 m/s 766 mmHg 90%
    05:00 +13°C° 0 mm 1 m/s 766 mmHg 90%
    06:00 +13°C° 0 mm 2 m/s 767 mmHg 90%
    07:00 +13°C° 0 mm 2 m/s 767 mmHg 90%
    08:00 +16°C° 0 mm 2 m/s 767 mmHg 78%
    09:00 +18°C° 0 mm 2 m/s 767 mmHg 65%
    10:00 +21°C° 0 mm 2 m/s 767 mmHg 53%
    11:00 +24°C° 0 mm 2 m/s 766 mmHg 46%
    12:00 +25°C° 0 mm 2 m/s 765 mmHg 39%
    13:00 +26°C° 0 mm 2 m/s 765 mmHg 32%
    14:00 +26°C° 0 mm 3 m/s 764 mmHg 35%
    15:00 +26°C° 0 mm 3 m/s 764 mmHg 37%
    16:00 +26°C° 0 mm 3 m/s 763 mmHg 40%
    17:00 +22°C° 0 mm 3 m/s 764 mmHg 48%
    18:00 +20°C° 0 mm 3 m/s 764 mmHg 56%
    19:00 +18°C° 0 mm 3 m/s 764 mmHg 65%
    20:00 +18°C° 0 mm 3 m/s 765 mmHg 65%
    21:00 +17°C° 0 mm 3 m/s 765 mmHg 66%
    22:00 +16°C° 0 mm 3 m/s 765 mmHg 66%
    23:00 +16°C° 0 mm 3 m/s 765 mmHg 64%

    Poimâine, 29 Iulie, Sâmbătă

    Timp Temperatura Precipitaţii Vânt Presiune Umiditate
    00:00 +16°C° 0 mm 3 m/s 765 mmHg 62%
    01:00 +14°C° 0 mm 3 m/s 764 mmHg 60%
    02:00 +14°C° 0 mm 3 m/s 764 mmHg 58%
    03:00 +14°C° 0 mm 3 m/s 764 mmHg 57%
    04:00 +14°C° 0 mm 3 m/s 764 mmHg 55%
    05:00 +14°C° 0 mm 3 m/s 764 mmHg 55%
    06:00 +13°C° 0 mm 3 m/s 764 mmHg 54%
    07:00 +13°C° 0 mm 3 m/s 765 mmHg 53%
    08:00 +17°C° 0 mm 3 m/s 765 mmHg 47%
    09:00 +20°C° 0 mm 3 m/s 765 mmHg 40%
    10:00 +24°C° 0 mm 2 m/s 765 mmHg 34%
    11:00 +25°C° 0 mm 2 m/s 764 mmHg 29%
    12:00 +27°C° 0 mm 2 m/s 763 mmHg 24%
    13:00 +28°C° 0 mm 2 m/s 763 mmHg 19%
    14:00 +27°C° 0 mm 2 m/s 762 mmHg 22%
    15:00 +27°C° 0 mm 3 m/s 762 mmHg 26%
    16:00 +26°C° 0 mm 3 m/s 762 mmHg 29%
    17:00 +23°C° 0 mm 2 m/s 762 mmHg 39%
    18:00 +20°C° 0 mm 2 m/s 763 mmHg 49%
    19:00 +17°C° 0 mm 2 m/s 763 mmHg 59%
    20:00 +18°C° 0 mm 1 m/s 764 mmHg 62%
    21:00 +16°C° 0 mm 1 m/s 764 mmHg 66%
    22:00 +15°C° 0 mm 1 m/s 764 mmHg 70%
    23:00 +15°C° 0 mm 1 m/s 764 mmHg 70%

    30 Iulie, Duminică

    Timp Temperatura Precipitaţii Vânt Presiune Umiditate
    00:00 +14°C° 0 mm 1 m/s 764 mmHg 70%
    01:00 +14°C° 0 mm 1 m/s 764 mmHg 70%
    02:00 +13°C° 0 mm 2 m/s 764 mmHg 66%
    03:00 +13°C° 0 mm 2 m/s 764 mmHg 62%
    04:00 +13°C° 0 mm 2 m/s 764 mmHg 58%
    05:00 +12°C° 0 mm 2 m/s 764 mmHg 55%
    06:00 +12°C° 0 mm 2 m/s 764 mmHg 51%
    07:00 +12°C° 0 mm 2 m/s 765 mmHg 47%
    08:00 +16°C° 0 mm 1 m/s 765 mmHg 40%
    09:00 +20°C° 0 mm 1 m/s 765 mmHg 33%
    10:00 +24°C° 0 mm 1 m/s 765 mmHg 27%
    11:00 +25°C° 0 mm 1 m/s 764 mmHg 25%
    12:00 +27°C° 0 mm 1 m/s 763 mmHg 23%
    13:00 +28°C° 0 mm 2 m/s 762 mmHg 22%
    14:00 +27°C° 0 mm 2 m/s 762 mmHg 26%
    15:00 +26°C° 0 mm 2 m/s 762 mmHg 30%
    16:00 +26°C° 0 mm 3 m/s 762 mmHg 34%
    17:00 +22°C° 0 mm 3 m/s 763 mmHg 45%
    18:00 +20°C° 0 mm 3 m/s 763 mmHg 57%
    19:00 +18°C° 0 mm 3 m/s 764 mmHg 68%
    20:00 +17°C° 0 mm 2 m/s 764 mmHg 73%
    21:00 +17°C° 0 mm 2 m/s 764 mmHg 77%
    22:00 +16°C° 0 mm 2 m/s 764 mmHg 82%
    23:00 +16°C° 0 mm 2 m/s 764 mmHg 83%

    31 Iulie, Luni

    Timp Temperatura Precipitaţii Vânt Presiune Umiditate
    00:00 +15°C° 0 mm 2 m/s 764 mmHg 84%
    01:00 +15°C° 0 mm 2 m/s 763 mmHg 85%
    02:00 +14°C° 0 mm 2 m/s 763 mmHg 85%
    03:00 +14°C° 0 mm 2 m/s 763 mmHg 85%
    04:00 +14°C° 0 mm 2 m/s 763 mmHg 85%
    05:00 +14°C° 0 mm 2 m/s 764 mmHg 84%
    06:00 +13°C° 0 mm 2 m/s 764 mmHg 84%
    07:00 +13°C° 0 mm 2 m/s 765 mmHg 83%
    08:00 +16°C° 0 mm 2 m/s 765 mmHg 71%
    09:00 +19°C° 0 mm 2 m/s 765 mmHg 59%
    10:00 +22°C° 0 mm 3 m/s 765 mmHg 47%
    11:00 +25°C° 0 mm 3 m/s 764 mmHg 42%
    12:00 +26°C° 0 mm 3 m/s 763 mmHg 37%
    13:00 +27°C° 0 mm 3 m/s 762 mmHg 32%
    14:00 +27°C° 0 mm 4 m/s 761 mmHg 35%
    15:00 +27°C° 0 mm 4 m/s 761 mmHg 37%
    16:00 +26°C° 0 mm 5 m/s 761 mmHg 40%
    17:00 +23°C° 0 mm 5 m/s 761 mmHg 48%
    18:00 +21°C° 0 mm 5 m/s 761 mmHg 57%
    19:00 +20°C° 0 mm 5 m/s 762 mmHg 66%
    20:00 +19°C° 0 mm 5 m/s 762 mmHg 67%
    21:00 +19°C° 0 mm 5 m/s 762 mmHg 68%
    22:00 +17°C° 0 mm 5 m/s 761 mmHg 69%
    23:00 +17°C° 0 mm 5 m/s 761 mmHg 70%

    1 August, Marţi

    Timp Temperatura Precipitaţii Vânt Presiune Umiditate
    00:00 +16°C° 0 mm 5 m/s 761 mmHg 71%
    01:00 +16°C° 0 mm 5 m/s 761 mmHg 73%
    02:00 +16°C° 0 mm 5 m/s 761 mmHg 72%
    03:00 +15°C° 0 mm 5 m/s 761 mmHg 72%
    04:00 +15°C° 0 mm 5 m/s 761 mmHg 72%
    05:00 +15°C° 0 mm 4 m/s 762 mmHg 71%
    06:00 +15°C° 0 mm 4 m/s 763 mmHg 69%
    07:00 +15°C° 0 mm 4 m/s 763 mmHg 67%
    08:00 +17°C° 0 mm 4 m/s 763 mmHg 60%
    09:00 +19°C° 0 mm 4 m/s 764 mmHg 53%
    10:00 +20°C° 0 mm 4 m/s 764 mmHg 46%
    11:00 +22°C° 0 mm 3 m/s 763 mmHg 40%
    12:00 +24°C° 0 mm 3 m/s 763 mmHg 34%
    13:00 +25°C° 0 mm 2 m/s 762 mmHg 28%
    14:00 +25°C° 0 mm 2 m/s 762 mmHg 29%
    15:00 +25°C° 0 mm 3 m/s 762 mmHg 29%
    16:00 +25°C° 0 mm 3 m/s 762 mmHg 30%
    17:00 +21°C° 0 mm 3 m/s 763 mmHg 39%
    18:00 +19°C° 0 mm 3 m/s 763 mmHg 49%
    19:00 +17°C° 0 mm 2 m/s 764 mmHg 58%
    20:00 +16°C° 0 mm 2 m/s 764 mmHg 60%
    21:00 +16°C° 0 mm 2 m/s 765 mmHg 63%
    22:00 +15°C° 0 mm 2 m/s 765 mmHg 65%
    23:00 +14°C° 0 mm 2 m/s 765 mmHg 67%
    Arată mai mult